Regional Weather Roundup
Issued by NWS

Home | Current Version | Previous Version | Graphics & Text | Print | Product List | Glossary On
Versions: 1 2 3 4 5 6 7 8 9 10 11 12 13 14 15 16 17 18 19 20 21 22 23 24 25 26 27 28 29 30 31 32 33 34 35 36 37 38 39 40 41 42 43 44 45 46 47 48 49 50
000
ASUS43 KFSD 211510
RWRSD

WEATHER ROUNDUP FOR SOUTH DAKOTA
NATIONAL WEATHER SERVICE SIOUX FALLS SD
1000 AM CDT TUE APR 21 2015

NOTE: "FAIR" INDICATES FEW OR NO CLOUDS BELOW 12,000 FEET WITH NO
SIGNIFICANT WEATHER AND/OR OBSTRUCTIONS TO VISIBILITY.


SDZ001>005-009-010-012>017-211600-
NORTHWEST AND NORTH CENTRAL SOUTH DAKOTA

CITY           SKY/WX    TMP DP  RH WIND       PRES   REMARKS
BUFFALO          N/A     38  20  48 E18       29.78R
FAITH            N/A     38  23  55 NE14      29.83R
MOBRIDGE       PTSUNNY   39  28  64 N14       29.82S
$$

SDZ012>016-024>037-041>051-057-063-072>074-211600-
SOUTHWEST AND SOUTH CENTRAL SOUTH DAKOTA

CITY           SKY/WX    TMP DP  RH WIND       PRES   REMARKS
RAPID CTY ARPT MOSUNNY   54  24  31 NE13      29.77F
PIERRE         CLOUDY    40  26  57 NE16      29.83S
CUSTER         SUNNY     47  20  34 W13G18    29.81F
ELLSWORTH AFB  MOSUNNY   49  26  40 NE10      29.78R
PHILIP         MOSUNNY   45 N/A N/A NE13      29.82R
PINE RIDGE     MOSUNNY   47  26  44 W8        29.82F
SPEARFISH      FAIR      52  25  35 W17       29.81S
WINNER         PTSUNNY   41  21  44 E5        29.83F
$$

SDZ004>011-016>023-039-040-211600-
NORTHEAST SOUTH DAKOTA

CITY           SKY/WX    TMP DP  RH WIND       PRES   REMARKS
ABERDEEN       CLOUDY    38  24  57 NW20      29.83R
WATERTOWN      PTSUNNY   37  24  59 NW25G35   29.75R
BROOKINGS      CLOUDY    37  23  56 NW29      29.76F
SISSETON         N/A     36  25  64 N31       29.73R
$$

SDZ017-020-022-023-036>040-048>070-211600-
SOUTHEAST SOUTH DAKOTA

CITY           SKY/WX    TMP DP  RH WIND       PRES   REMARKS
SIOUX FALLS    PTSUNNY   41  23  48 N24G31    29.78S
HURON          PTSUNNY   40  25  55 NW15      29.83S
CHAMBERLAIN    PTSUNNY   39  24  54 NE6       29.84S
MITCHELL       MOSUNNY   42  26  53 N17       29.84S
YANKTON        SUNNY     39  23  52 NW7       29.84R
$$

ABBREVIATIONS USED IN REMARKS
   TC - TEMPERATURE IN CELSIUS
  WCI - WIND CHILL INDEX
   HX - HEAT INDEX
  VSB - VISIBILITY




USA.gov is the U.S. government's official web portal to all federal, state and local government web resources and services.